Location: Biltmore Gardens
(41.6070°N, 83.4666°W)
Time: 14:00:23
(UTC+00:00)

Cosmos 2369 Rocket - Pass Details

Date: 14 July 2020
Orbit: 830 x 851 km, 71.0° (Epoch: 04 August)

Event Time Altitude Azimuth Distance (km) Brightness Sun altitude
Rises 02:40:38 0° 350° (N) 3,383 6.4 -14.4°
Reaches altitude 10° 02:44:31 10° 16° (NNE) 2,447 5.0 -14.9°
Maximum altitude 02:47:11 13° 45° (NE) 2,210 4.4 -15.2°
Drops below altitude 10° 02:49:51 10° 74° (ENE) 2,447 4.4 -15.5°
Enters shadow 02:51:15 - 86° (E) 2,728 4.5 -15.7°
